Regional Weather Roundup
Issued by NWS Goodland, KS

Home | Current Version | Previous Version | Graphics & Text | Print | Product List | Glossary On
Versions: 1 2 3 4 5 6 7 8 9 10 11 12 13 14 15 16 17 18 19 20 21 22 23 24 25 26 27 28 29 30 31 32 33 34 35 36 37 38 39 40 41 42 43 44 45 46 47 48 49 50
000
ASUS43 KGLD 231059
RWRGLD

GOODLAND FORECAST AREA HOURLY WEATHER ROUNDUP
NATIONAL WEATHER SERVICE GOODLAND KS
500 AM MDT THU MAR 23 2017

...OFFICIAL OBSERVATIONS...

CITY           SKY/WX    TMP DP  RH WIND       PRES   REMARKS
GOODLAND KS    CLOUDY    44  43  96 S21       29.74F
HILL CITY KS   CLOUDY    50  48  93 SE10      29.83F FOG
IMPERIAL NEB   CLOUDY    42  39  89 SE9       29.73F
MCCOOK NEB     CLOUDY    44  39  82 SE7       29.79F
AKRON CO       CLOUDY    50  42  74 S17       29.67F
BURLINGTON CO  CLEAR     47  44  90 S18       29.74F
LIMON CO       FOG       36  36 100 S5        29.76S VSB 1/4
$$

...UNOFFICIAL OBSERVATIONS...

CITY           SKY/WX    TMP DP  RH WIND       PRES   REMARKS
LENORA KS        N/A     48  32  54 SE12        N/A
NORTON KS      CLOUDY    48  39  71 SE13      29.82S
SHARON SPRINGS   N/A     45  43  93 SE15        N/A
TRENTON NEB      N/A     44  32  63 S10         N/A
YUMA CO        FAIR      46  43  87 S14       29.67F
$$



USA.gov is the U.S. government's official web portal to all federal, state and local government web resources and services.